Leeuwarden, Netherlands

1:36 AM CEST on March 27, 2017 (GMT +0200)
Leeuwarden Air Base

Weather History for EHLW - October, 2013

Change the Weather History Date:

Tuesday, October 22, 2013

  Actual Average Record
Temperature  
Mean Temperature 62 °F -  
Max Temperature 69 °F 48 °F 69 °F (2013)
Min Temperature 55 °F 40 °F 28 °F (1997)
Degree Days  
Heating Degree Days 3    
Growing Degree Days 12 (Base 50)    
Moisture  
Dew Point 57 °F    
Average Humidity 82    
Maximum Humidity 94    
Minimum Humidity 68    
Precipitation  
Precipitation 0.02 in - - ()
Sea Level Pressure  
Sea Level Pressure 29.63 in    
Wind  
Wind Speed 10 mph ()    
Max Wind Speed 16 mph    
Max Gust Speed 24 mph    
Visibility 6.8 miles    
Events Rain    
Averages and records for this station are not official NWS values.
T = Trace of Precipitation, MM = Missing Value Source: Averaged Metar Reports

Daily Weather History Graph

Daily Weather History Graph

Search for Another Location

Airport or City:

Trip Planner

Search our weather history database for the weather conditions in past years. The results will help you decide how hot, cold, wet, or windy it might be!

Date:

Astronomy

Oct. 22, 2013 Rise Set
Actual Time 8:16 AM CEST 6:25 PM CEST
Civil Twilight 7:40 AM CEST 7:01 PM CEST
Nautical Twilight 7:00 AM CEST 7:41 PM CEST
Astronomical Twilight 6:20 AM CEST 8:21 PM CEST
Moon 8:30 PM CEST (10/22) 11:53 AM CEST (10/22)
Length of Visible Light 11h 20m
Length of Day
10h 08m
Waning Gibbous, 88% of the Moon is Illuminated
Oct 22
Waning Gibbous
Oct 27
Last Quarter
Nov 3
New
Nov 10
First Quarter
Nov 17
Full

Hourly Weather History & Observations

Time (CEST) Temp. Dew Point Humidity Pressure Visibility Wind Dir Wind Speed Gust Speed Precip Events Conditions
12:25 AM 57.2 °F 53.6 °F 88% 29.77 in 6.2 mi South 8.1 mph - N/A   Unknown
12:55 AM 57.2 °F 53.6 °F 88% 29.77 in 6.2 mi South 9.2 mph - N/A   Unknown
1:25 AM 57.2 °F 53.6 °F 88% 29.77 in 6.2 mi South 8.1 mph - N/A   Unknown
1:55 AM 57.2 °F 53.6 °F 88% 29.77 in 6.2 mi South 8.1 mph - N/A   Unknown
2:00 AM 57 °F 54 °F 86% 29.78 in 19 mi South 8.9 mph - -   Partly Cloudy
2:25 AM 57.2 °F 53.6 °F 88% 29.77 in 6.2 mi South 8.1 mph - N/A   Unknown
2:55 AM 57.2 °F 53.6 °F 88% 29.77 in 6.2 mi South 8.1 mph - N/A   Unknown
3:25 AM 57.2 °F 53.6 °F 88% 29.77 in 6.2 mi South 9.2 mph - N/A   Unknown
3:55 AM 55.4 °F 53.6 °F 94% 29.74 in 6.2 mi South 9.2 mph - N/A   Unknown
4:25 AM 55.4 °F 53.6 °F 94% 29.74 in 6.2 mi South 8.1 mph - N/A   Unknown
4:55 AM 55.4 °F 53.6 °F 94% 29.74 in 6.2 mi South 9.2 mph - N/A   Unknown
5:25 AM 55.4 °F 53.6 °F 94% 29.74 in 6.2 mi SSE 9.2 mph - N/A   Unknown
5:55 AM 55.4 °F 53.6 °F 94% 29.71 in 6.2 mi South 9.2 mph - N/A   Unknown
6:25 AM 55.4 °F 53.6 °F 94% 29.71 in 6.2 mi SSE 9.2 mph - N/A   Unknown
6:55 AM 55.4 °F 53.6 °F 94% 29.71 in 6.2 mi SSE 9.2 mph - N/A   Unknown
7:25 AM 57.2 °F 53.6 °F 88% 29.71 in 6.2 mi South 9.2 mph - N/A   Unknown
7:55 AM 55.4 °F 53.6 °F 94% 29.71 in 6.2 mi SSE 9.2 mph - N/A   Unknown
8:00 AM 56 °F 54 °F 90% 29.71 in 8 mi SSE 8.9 mph - -   Partly Cloudy
8:25 AM 57.2 °F 53.6 °F 88% 29.68 in 6.2 mi SSE 8.1 mph - N/A   Overcast
8:55 AM 57.2 °F 53.6 °F 88% 29.68 in 6.2 mi SSE 10.4 mph - N/A   Overcast
9:25 AM 57.2 °F 53.6 °F 88% 29.68 in 6.2 mi SSE 10.4 mph - N/A   Unknown
9:55 AM 59.0 °F 55.4 °F 88% 29.68 in 6.2 mi SSE 11.5 mph - N/A   Unknown
10:25 AM 60.8 °F 55.4 °F 82% 29.68 in 6.2 mi South 12.7 mph - N/A   Partly Cloudy
10:55 AM 60.8 °F 55.4 °F 82% 29.65 in 6.2 mi South 15.0 mph - N/A   Unknown
11:25 AM 62.6 °F 57.2 °F 82% 29.65 in 6.2 mi South 13.8 mph - N/A   Unknown
11:55 AM 62.6 °F 57.2 °F 82% 29.65 in 6.2 mi South 15.0 mph - N/A   Unknown
12:25 PM 64.4 °F 59.0 °F 83% 29.62 in 6.2 mi South 12.7 mph - N/A   Unknown
12:55 PM 66.2 °F 59.0 °F 78% 29.62 in 6.2 mi South 13.8 mph - N/A   Unknown
1:25 PM 66.2 °F 59.0 °F 78% 29.62 in 6.2 mi South 15.0 mph - N/A   Unknown
1:55 PM 68.0 °F 60.8 °F 78% 29.59 in 6.2 mi South 16.1 mph - N/A   Mostly Cloudy
2:00 PM 68 °F 60 °F 68% 29.60 in 14 mi South 13.4 mph - -   Partly Cloudy
2:25 PM 68.0 °F 59.0 °F 73% 29.59 in 6.2 mi South 16.1 mph - N/A   Unknown
2:44 PM 68.0 °F 59.0 °F 73% 29.56 in 6.2 mi South 15.0 mph - N/A   Scattered Clouds
2:55 PM 68.0 °F 59.0 °F 73% 29.56 in 6.2 mi SSE 13.8 mph - N/A   Overcast
3:25 PM 68.0 °F 59.0 °F 73% 29.56 in 6.2 mi SSE 13.8 mph - N/A   Overcast
3:55 PM 69.8 °F 59.0 °F 68% 29.56 in 6.2 mi South 16.1 mph - N/A   Overcast
4:25 PM 68.0 °F 59.0 °F 73% 29.53 in 6.2 mi South 15.0 mph - N/A   Scattered Clouds
4:55 PM 68.0 °F 59.0 °F 73% 29.53 in 6.2 mi SSE 12.7 mph 24.2 mph N/A   Overcast
5:21 PM 66.2 °F 59.0 °F 78% 29.53 in 6.2 mi SSE 12.7 mph - N/A   Overcast
5:25 PM 68.0 °F 59.0 °F 73% 29.53 in 6.2 mi SSE 12.7 mph - N/A   Overcast
5:55 PM 66.2 °F 59.0 °F 78% 29.53 in 6.2 mi South 13.8 mph - N/A   Overcast
6:25 PM 66.2 °F 59.0 °F 78% 29.53 in 6.2 mi South 13.8 mph - N/A   Overcast
6:55 PM 66.2 °F 59.0 °F 78% 29.53 in 6.2 mi South 12.7 mph - N/A   Overcast
7:25 PM 66.2 °F 59.0 °F 78% 29.53 in 6.2 mi South 12.7 mph - N/A   Mostly Cloudy
7:55 PM 66.2 °F 59.0 °F 78% 29.53 in 6.2 mi South 13.8 mph - N/A   Overcast
8:00 PM 66 °F 59 °F 72% 29.55 in 15 mi South 13.4 mph - -   Partly Cloudy
8:25 PM 66.2 °F 59.0 °F 78% 29.53 in 6.2 mi South 13.8 mph - N/A   Overcast
8:47 PM 66.2 °F 59.0 °F 78% 29.53 in 6.2 mi South 13.8 mph - N/A   Mostly Cloudy
8:55 PM 66.2 °F 59.0 °F 78% 29.53 in 6.2 mi South 12.7 mph - N/A   Mostly Cloudy
9:25 PM 64.4 °F 59.0 °F 83% 29.53 in 6.2 mi South 11.5 mph - N/A   Mostly Cloudy
9:55 PM 64.4 °F 57.2 °F 77% 29.53 in 6.2 mi South 10.4 mph - N/A   Overcast
10:25 PM 64.4 °F 57.2 °F 77% 29.53 in 6.2 mi South 12.7 mph - N/A   Mostly Cloudy
10:42 PM 66.2 °F 55.4 °F 68% 29.50 in 6.2 mi South 15.0 mph - N/A   Light Drizzle
10:55 PM 66.2 °F 57.2 °F 73% 29.50 in 6.2 mi South 15.0 mph - N/A   Mostly Cloudy
11:25 PM 64.4 °F 57.2 °F 77% 29.50 in 6.2 mi South 16.1 mph - N/A Rain Light Rain
11:55 PM 60.8 °F 57.2 °F 88% 29.50 in 6.2 mi South 15.0 mph - N/A Rain Light Rain